Time,TemperatureF,DewpointF,PressureIn,WindDirection,WindDirectionDegrees,WindSpeedMPH,WindSpeedGustMPH,Humidity,HourlyPrecipIn,Conditions,Clouds,dailyrainin,SoftwareType,DateUTC
2013-06-26 00:02:00,64.8,57.4,27.79,South,171,0.0,1.0,77,0.00,,---,0.00,VWS V14.01,2013-06-26 05:02:00,
2013-06-26 00:07:00,65.2,57.5,27.79,South,171,0.0,3.0,76,0.00,,---,0.00,VWS V14.01,2013-06-26 05:07:00,
2013-06-26 00:12:00,65.4,57.3,27.79,South,172,0.0,2.0,75,0.00,,---,0.00,VWS V14.01,2013-06-26 05:12:00,
2013-06-26 00:17:00,65.6,57.5,27.80,SE,140,0.0,4.0,75,0.00,,---,0.00,VWS V14.01,2013-06-26 05:17:00,
2013-06-26 00:22:00,65.9,57.4,27.80,SE,129,0.0,1.0,74,0.00,,---,0.00,VWS V14.01,2013-06-26 05:22:00,
2013-06-26 00:27:00,65.8,57.3,27.80,SE,138,0.0,1.0,74,0.00,,---,0.00,VWS V14.01,2013-06-26 05:27:00,
2013-06-26 00:33:00,65.8,57.3,27.79,SSE,147,1.0,1.0,74,0.00,,---,0.00,VWS V14.01,2013-06-26 05:33:00,
2013-06-26 00:38:00,65.8,57.3,27.79,SE,142,0.0,3.0,74,0.00,,---,0.00,VWS V14.01,2013-06-26 05:38:00,
2013-06-26 00:43:00,65.7,56.8,27.79,SSE,147,0.0,0.0,73,0.00,,---,0.00,VWS V14.01,2013-06-26 05:43:00,
2013-06-26 00:48:00,65.7,56.8,27.78,SSE,150,0.0,3.0,73,0.00,,---,0.00,VWS V14.01,2013-06-26 05:48:00,
2013-06-26 00:53:00,65.7,56.8,27.78,South,171,3.0,4.0,73,0.00,,---,0.00,VWS V14.01,2013-06-26 05:53:00,
2013-06-26 00:58:00,65.7,57.2,27.78,SSW,209,0.0,0.0,74,0.00,,---,0.00,VWS V14.01,2013-06-26 05:58:00,
2013-06-26 01:04:00,65.6,57.1,27.78,SSW,205,0.0,0.0,74,0.00,,---,0.00,VWS V14.01,2013-06-26 06:04:00,
2013-06-26 01:09:00,65.5,56.6,27.78,SSE,148,0.0,1.0,73,0.00,,---,0.00,VWS V14.01,2013-06-26 06:09:00,
2013-06-26 01:14:00,65.5,56.6,27.78,South,171,0.0,0.0,73,0.00,,---,0.00,VWS V14.01,2013-06-26 06:14:00,
2013-06-26 01:19:00,65.3,56.0,27.78,South,175,0.0,1.0,72,0.00,,---,0.00,VWS V14.01,2013-06-26 06:19:00,
2013-06-26 01:24:00,65.2,55.2,27.78,South,177,0.0,2.0,70,0.00,,---,0.00,VWS V14.01,2013-06-26 06:24:00,
2013-06-26 01:30:00,65.2,55.6,27.78,SSE,149,0.0,0.0,71,0.00,,---,0.00,VWS V14.01,2013-06-26 06:30:00,
2013-06-26 01:35:00,65.3,55.3,27.77,South,182,0.0,0.0,70,0.00,,---,0.00,VWS V14.01,2013-06-26 06:35:00,
2013-06-26 01:40:00,65.2,55.2,27.77,South,176,0.0,0.0,70,0.00,,---,0.00,VWS V14.01,2013-06-26 06:40:00,
2013-06-26 01:45:00,65.3,55.3,27.77,SSE,166,0.0,1.0,70,0.00,,---,0.00,VWS V14.01,2013-06-26 06:45:00,
2013-06-26 01:50:00,65.3,54.9,27.77,SSE,154,0.0,1.0,69,0.00,,---,0.00,VWS V14.01,2013-06-26 06:50:00,
2013-06-26 01:55:00,65.4,54.6,27.77,SSE,157,0.0,0.0,68,0.00,,---,0.00,VWS V14.01,2013-06-26 06:55:00,
2013-06-26 02:00:00,65.2,54.8,27.77,SSE,157,0.0,2.0,69,0.00,,---,0.00,VWS V14.01,2013-06-26 07:00:00,
2013-06-26 02:05:00,64.9,54.5,27.77,SW,219,0.0,2.0,69,0.00,,---,0.00,VWS V14.01,2013-06-26 07:05:00,
2013-06-26 02:11:00,64.9,54.9,27.77,SSW,205,1.0,1.0,70,0.00,,---,0.00,VWS V14.01,2013-06-26 07:11:00,
2013-06-26 02:16:00,64.8,54.4,27.77,SSW,205,0.0,0.0,69,0.00,,---,0.00,VWS V14.01,2013-06-26 07:16:00,
2013-06-26 02:21:00,64.7,54.7,27.77,SSW,205,0.0,1.0,70,0.00,,---,0.00,VWS V14.01,2013-06-26 07:21:00,
2013-06-26 02:26:00,64.5,54.9,27.77,SSW,205,0.0,1.0,71,0.00,,---,0.00,VWS V14.01,2013-06-26 07:26:00,
2013-06-26 02:31:00,64.5,54.9,27.77,SSW,205,0.0,0.0,71,0.00,,---,0.00,VWS V14.01,2013-06-26 07:31:00,
2013-06-26 02:37:00,64.5,54.9,27.77,SSW,205,0.0,0.0,71,0.00,,---,0.00,VWS V14.01,2013-06-26 07:37:00,
2013-06-26 02:42:00,64.4,54.8,27.77,SSW,197,0.0,3.0,71,0.00,,---,0.00,VWS V14.01,2013-06-26 07:42:00,
2013-06-26 02:47:00,64.3,55.1,27.77,SSW,196,0.0,0.0,72,0.00,,---,0.00,VWS V14.01,2013-06-26 07:47:00,
2013-06-26 02:52:00,64.2,55.0,27.77,SSW,194,0.0,0.0,72,0.00,,---,0.00,VWS V14.01,2013-06-26 07:52:00,
2013-06-26 02:57:00,63.8,55.0,27.77,SSW,194,0.0,0.0,73,0.00,,---,0.00,VWS V14.01,2013-06-26 07:57:00,
2013-06-26 03:03:00,63.3,54.9,27.77,SSW,194,0.0,0.0,74,0.00,,---,0.00,VWS V14.01,2013-06-26 08:03:00,
2013-06-26 03:08:00,62.9,54.9,27.77,SSW,194,0.0,0.0,75,0.00,,---,0.00,VWS V14.01,2013-06-26 08:08:00,
2013-06-26 03:13:00,62.5,55.2,27.77,SSW,194,0.0,0.0,77,0.00,,---,0.00,VWS V14.01,2013-06-26 08:13:00,
2013-06-26 03:18:00,62.3,55.0,27.77,SSW,194,0.0,0.0,77,0.00,,---,0.00,VWS V14.01,2013-06-26 08:18:00,
2013-06-26 03:23:00,62.2,55.3,27.77,SSW,194,0.0,0.0,78,0.00,,---,0.00,VWS V14.01,2013-06-26 08:23:00,
2013-06-26 03:28:00,62.4,55.1,27.77,SSW,194,0.0,0.0,77,0.00,,---,0.00,VWS V14.01,2013-06-26 08:28:00,
2013-06-26 03:34:00,62.6,55.3,27.76,SSW,194,0.0,0.0,77,0.00,,---,0.00,VWS V14.01,2013-06-26 08:34:00,
2013-06-26 03:39:00,62.6,55.3,27.76,SSW,194,0.0,0.0,77,0.00,,---,0.00,VWS V14.01,2013-06-26 08:39:00,
2013-06-26 03:44:00,62.3,55.4,27.76,SSW,194,0.0,0.0,78,0.00,,---,0.00,VWS V14.01,2013-06-26 08:44:00,
2013-06-26 03:49:00,61.9,55.3,27.75,SSW,194,0.0,0.0,79,0.00,,---,0.00,VWS V14.01,2013-06-26 08:49:00,
2013-06-26 03:54:00,61.4,54.8,27.75,SSW,194,0.0,1.0,79,0.00,,---,0.00,VWS V14.01,2013-06-26 08:54:00,
2013-06-26 03:59:00,61.1,54.9,27.75,SSW,194,0.0,0.0,80,0.00,,---,0.00,VWS V14.01,2013-06-26 08:59:00,
2013-06-26 04:04:00,61.0,54.8,27.75,SSW,194,0.0,0.0,80,0.00,,---,0.00,VWS V14.01,2013-06-26 09:04:00,
2013-06-26 04:09:00,60.5,54.7,27.75,SSW,194,0.0,0.0,81,0.00,,---,0.00,VWS V14.01,2013-06-26 09:09:00,
2013-06-26 04:14:00,60.1,54.6,27.75,SSW,194,0.0,0.0,82,0.00,,---,0.00,VWS V14.01,2013-06-26 09:14:00,
2013-06-26 04:20:00,59.7,54.5,27.75,SSW,194,0.0,0.0,83,0.00,,---,0.00,VWS V14.01,2013-06-26 09:20:00,
2013-06-26 04:25:00,59.1,54.3,27.75,SSW,194,0.0,0.0,84,0.00,,---,0.00,VWS V14.01,2013-06-26 09:25:00,
2013-06-26 04:30:00,59.0,54.5,27.75,SSW,194,0.0,0.0,85,0.00,,---,0.00,VWS V14.01,2013-06-26 09:30:00,
2013-06-26 04:35:00,58.8,54.6,27.75,SSW,194,0.0,0.0,86,0.00,,---,0.00,VWS V14.01,2013-06-26 09:35:00,
2013-06-26 04:40:00,58.6,54.4,27.75,SSW,194,0.0,0.0,86,0.00,,---,0.00,VWS V14.01,2013-06-26 09:40:00,
2013-06-26 04:46:00,58.4,54.5,27.75,SSW,194,0.0,0.0,87,0.00,,---,0.00,VWS V14.01,2013-06-26 09:46:00,
2013-06-26 04:51:00,58.2,54.7,27.75,SSW,194,0.0,0.0,88,0.00,,---,0.00,VWS V14.01,2013-06-26 09:51:00,
2013-06-26 04:56:00,58.0,54.8,27.75,SSW,194,0.0,0.0,89,0.00,,---,0.00,VWS V14.01,2013-06-26 09:56:00,
2013-06-26 05:01:00,58.0,54.8,27.75,SSW,194,0.0,0.0,89,0.00,,---,0.00,VWS V14.01,2013-06-26 10:01:00,
2013-06-26 05:06:00,57.9,54.7,27.75,SSW,194,0.0,0.0,89,0.00,,---,0.00,VWS V14.01,2013-06-26 10:06:00,
2013-06-26 05:12:00,58.1,55.5,27.75,SSW,194,0.0,0.0,91,0.00,,---,0.00,VWS V14.01,2013-06-26 10:12:00,
2013-06-26 05:17:00,58.6,56.0,27.77,SSW,194,0.0,2.0,91,0.00,,---,0.00,VWS V14.01,2013-06-26 10:17:00,
2013-06-26 05:22:00,59.0,55.8,27.77,SSW,194,0.0,0.0,89,0.00,,---,0.00,VWS V14.01,2013-06-26 10:22:00,
2013-06-26 05:27:00,59.6,56.0,27.77,SSW,194,0.0,0.0,88,0.00,,---,0.00,VWS V14.01,2013-06-26 10:27:00,
2013-06-26 05:32:00,60.0,56.1,27.77,SSW,194,0.0,0.0,87,0.00,,---,0.00,VWS V14.01,2013-06-26 10:32:00,
2013-06-26 05:37:00,60.4,56.5,27.77,SSW,194,0.0,0.0,87,0.00,,---,0.00,VWS V14.01,2013-06-26 10:37:00,
2013-06-26 05:42:00,60.9,56.7,27.77,SSW,194,0.0,1.0,86,0.00,,---,0.00,VWS V14.01,2013-06-26 10:42:00,
2013-06-26 05:47:00,61.5,57.0,27.77,SSE,156,0.0,0.0,85,0.00,,---,0.00,VWS V14.01,2013-06-26 10:47:00,
2013-06-26 05:52:00,62.1,57.2,27.77,SSE,156,0.0,0.0,84,0.00,,---,0.00,VWS V14.01,2013-06-26 10:52:00,
2013-06-26 05:58:00,62.3,57.4,27.77,SSE,156,0.0,0.0,84,0.00,,---,0.00,VWS V14.01,2013-06-26 10:58:00,
2013-06-26 06:03:00,62.5,57.3,27.76,SSE,156,0.0,0.0,83,0.00,,---,0.00,VWS V14.01,2013-06-26 11:03:00,
2013-06-26 06:08:00,62.7,57.5,27.76,SSE,156,0.0,0.0,83,0.00,,---,0.00,VWS V14.01,2013-06-26 11:08:00,
2013-06-26 06:13:00,62.8,57.6,27.76,SSE,156,0.0,1.0,83,0.00,,---,0.00,VWS V14.01,2013-06-26 11:13:00,
2013-06-26 06:18:00,62.8,57.6,27.76,SSE,156,0.0,0.0,83,0.00,,---,0.00,VWS V14.01,2013-06-26 11:18:00,
2013-06-26 06:23:00,62.9,57.7,27.76,SSE,156,0.0,1.0,83,0.00,,---,0.00,VWS V14.01,2013-06-26 11:23:00,
2013-06-26 06:28:00,63.2,58.0,27.76,SSE,156,0.0,1.0,83,0.00,,---,0.00,VWS V14.01,2013-06-26 11:28:00,
2013-06-26 06:34:00,63.5,58.2,27.75,SSE,153,0.0,0.0,83,0.00,,---,0.00,VWS V14.01,2013-06-26 11:34:00,
2013-06-26 06:39:00,63.7,58.5,27.75,SSE,153,0.0,1.0,83,0.00,,---,0.00,VWS V14.01,2013-06-26 11:39:00,
2013-06-26 06:44:00,63.9,58.3,27.75,SSE,153,0.0,0.0,82,0.00,,---,0.00,VWS V14.01,2013-06-26 11:44:00,
2013-06-26 06:49:00,64.3,58.7,27.75,SSE,153,0.0,0.0,82,0.00,,---,0.00,VWS V14.01,2013-06-26 11:49:00,
2013-06-26 06:54:00,64.5,58.9,27.75,SSE,153,0.0,1.0,82,0.00,,---,0.00,VWS V14.01,2013-06-26 11:54:00,
2013-06-26 06:59:00,64.7,59.1,27.75,SSE,153,1.0,1.0,82,0.00,,---,0.00,VWS V14.01,2013-06-26 11:59:00,
2013-06-26 07:05:00,65.1,59.1,27.75,SSE,153,0.0,0.0,81,0.00,,---,0.00,VWS V14.01,2013-06-26 12:05:00,
2013-06-26 07:10:00,65.4,59.8,27.75,SSE,153,0.0,0.0,82,0.00,,---,0.00,VWS V14.01,2013-06-26 12:10:00,
2013-06-26 07:15:00,65.7,60.1,27.75,SSE,153,0.0,0.0,82,0.00,,---,0.00,VWS V14.01,2013-06-26 12:15:00,
2013-06-26 07:20:00,65.9,60.3,27.75,SSE,153,0.0,0.0,82,0.00,,---,0.00,VWS V14.01,2013-06-26 12:20:00,
2013-06-26 07:25:00,66.0,60.3,27.75,SSE,153,0.0,0.0,82,0.00,,---,0.00,VWS V14.01,2013-06-26 12:25:00,
2013-06-26 07:30:00,66.1,60.1,27.76,SSE,153,0.0,0.0,81,0.00,,---,0.00,VWS V14.01,2013-06-26 12:30:00,
2013-06-26 07:36:00,66.4,60.4,27.76,SSE,153,0.0,0.0,81,0.00,,---,0.00,VWS V14.01,2013-06-26 12:36:00,
2013-06-26 07:41:00,66.9,60.9,27.76,SSE,153,0.0,0.0,81,0.00,,---,0.00,VWS V14.01,2013-06-26 12:41:00,
2013-06-26 07:46:00,67.7,61.3,27.75,SSE,153,0.0,0.0,80,0.00,,---,0.00,VWS V14.01,2013-06-26 12:46:00,
2013-06-26 07:51:00,68.7,61.9,27.75,SSE,153,0.0,0.0,79,0.00,,---,0.00,VWS V14.01,2013-06-26 12:51:00,
2013-06-26 07:56:00,69.7,62.5,27.75,SSE,153,0.0,0.0,78,0.00,,---,0.00,VWS V14.01,2013-06-26 12:56:00,
2013-06-26 08:01:00,70.3,62.4,27.75,SSE,153,0.0,1.0,76,0.00,,---,0.00,VWS V14.01,2013-06-26 13:01:00,
2013-06-26 08:06:00,70.7,63.1,27.75,SSE,153,0.0,1.0,77,0.00,,---,0.00,VWS V14.01,2013-06-26 13:06:00,
2013-06-26 08:11:00,70.9,63.3,27.75,SSE,153,0.0,0.0,77,0.00,,---,0.00,VWS V14.01,2013-06-26 13:11:00,
2013-06-26 08:16:00,71.0,63.4,27.75,SSE,153,0.0,0.0,77,0.00,,---,0.00,VWS V14.01,2013-06-26 13:16:00,
2013-06-26 08:22:00,71.3,64.1,27.75,SSE,153,0.0,0.0,78,0.00,,---,0.00,VWS V14.01,2013-06-26 13:22:00,
2013-06-26 08:27:00,71.6,64.0,27.75,SSE,153,0.0,0.0,77,0.00,,---,0.00,VWS V14.01,2013-06-26 13:27:00,
2013-06-26 08:32:00,72.0,64.4,27.75,SSE,153,0.0,0.0,77,0.00,,---,0.00,VWS V14.01,2013-06-26 13:32:00,
2013-06-26 08:37:00,72.4,64.4,27.75,SSE,153,0.0,0.0,76,0.00,,---,0.00,VWS V14.01,2013-06-26 13:37:00,
2013-06-26 08:42:00,72.9,64.9,27.75,SSE,153,0.0,0.0,76,0.00,,---,0.00,VWS V14.01,2013-06-26 13:42:00,
2013-06-26 08:48:00,72.6,64.6,27.75,SSE,153,0.0,0.0,76,0.00,,---,0.00,VWS V14.01,2013-06-26 13:48:00,
2013-06-26 08:53:00,72.4,65.2,27.75,SSE,153,0.0,1.0,78,0.00,,---,0.00,VWS V14.01,2013-06-26 13:53:00,
2013-06-26 08:58:00,72.3,65.4,27.75,SSE,153,0.0,0.0,79,0.00,,---,0.00,VWS V14.01,2013-06-26 13:58:00,
2013-06-26 09:03:00,72.3,65.1,27.75,SSE,153,0.0,1.0,78,0.00,,---,0.00,VWS V14.01,2013-06-26 14:03:00,
2013-06-26 09:08:00,72.3,65.4,27.75,SSE,153,0.0,1.0,79,0.00,,---,0.00,VWS V14.01,2013-06-26 14:08:00,
2013-06-26 09:13:00,72.5,66.0,27.75,SSE,153,0.0,0.0,80,0.00,,---,0.00,VWS V14.01,2013-06-26 14:13:00,
2013-06-26 09:18:00,72.9,66.0,27.74,SSE,150,1.0,2.0,79,0.00,,---,0.00,VWS V14.01,2013-06-26 14:18:00,
2013-06-26 09:23:00,73.4,66.1,27.74,SSE,148,2.0,2.0,78,0.00,,---,0.00,VWS V14.01,2013-06-26 14:23:00,
2013-06-26 09:29:00,73.6,66.3,27.74,SE,134,0.0,1.0,78,0.00,,---,0.00,VWS V14.01,2013-06-26 14:29:00,
2013-06-26 09:34:00,73.5,66.2,27.73,ESE,121,2.0,3.0,78,0.00,,---,0.00,VWS V14.01,2013-06-26 14:34:00,
2013-06-26 09:39:00,73.4,66.5,27.73,ENE,67,1.0,4.0,79,0.00,,---,0.00,VWS V14.01,2013-06-26 14:39:00,
2013-06-26 09:45:00,73.3,66.4,27.73,ESE,114,2.0,3.0,79,0.00,,---,0.00,VWS V14.01,2013-06-26 14:45:00,
2013-06-26 09:50:00,73.7,67.2,27.73,East,98,0.0,2.0,80,0.00,,---,0.00,VWS V14.01,2013-06-26 14:50:00,
2013-06-26 09:55:00,74.8,67.5,27.73,ENE,70,7.0,7.0,78,0.00,,---,0.00,VWS V14.01,2013-06-26 14:55:00,
2013-06-26 10:00:00,75.5,67.4,27.73,ESE,110,0.0,3.0,76,0.00,,---,0.00,VWS V14.01,2013-06-26 15:00:00,
2013-06-26 10:05:00,76.4,67.5,27.73,East,97,3.0,3.0,74,0.00,,---,0.00,VWS V14.01,2013-06-26 15:05:00,
2013-06-26 10:11:00,77.0,68.5,27.73,ESE,115,1.0,1.0,75,0.00,,---,0.00,VWS V14.01,2013-06-26 15:11:00,
2013-06-26 10:16:00,77.8,68.9,27.72,ESE,117,0.0,3.0,74,0.00,,---,0.00,VWS V14.01,2013-06-26 15:16:00,
2013-06-26 10:21:00,77.4,68.9,27.72,SSE,159,0.0,1.0,75,0.00,,---,0.00,VWS V14.01,2013-06-26 15:21:00,
2013-06-26 10:26:00,76.7,67.4,27.72,SE,141,0.0,5.0,73,0.00,,---,0.00,VWS V14.01,2013-06-26 15:26:00,
2013-06-26 10:31:00,76.5,68.0,27.71,ESE,122,1.0,4.0,75,0.00,,---,0.00,VWS V14.01,2013-06-26 15:31:00,
2013-06-26 10:36:00,76.4,67.9,27.71,ESE,113,1.0,2.0,75,0.00,,---,0.00,VWS V14.01,2013-06-26 15:36:00,
2013-06-26 10:41:00,76.5,68.4,27.71,ESE,118,0.0,2.0,76,0.00,,---,0.00,VWS V14.01,2013-06-26 15:41:00,
2013-06-26 10:46:00,76.5,68.0,27.71,SE,146,1.0,2.0,75,0.00,,---,0.00,VWS V14.01,2013-06-26 15:46:00,
2013-06-26 10:52:00,76.4,67.9,27.71,SE,140,0.0,1.0,75,0.00,,---,0.00,VWS V14.01,2013-06-26 15:52:00,
2013-06-26 10:57:00,76.6,68.9,27.71,SSE,153,4.0,11.0,77,0.00,,---,0.00,VWS V14.01,2013-06-26 15:57:00,
2013-06-26 11:02:00,76.6,68.5,27.71,ESE,115,4.0,11.0,76,0.00,,---,0.00,VWS V14.01,2013-06-26 16:02:00,
2013-06-26 11:07:00,76.6,68.5,27.71,ESE,109,4.0,6.0,76,0.00,,---,0.00,VWS V14.01,2013-06-26 16:07:00,
2013-06-26 11:12:00,76.6,68.1,27.71,SSE,148,3.0,5.0,75,0.00,,---,0.00,VWS V14.01,2013-06-26 16:12:00,
2013-06-26 11:17:00,76.5,68.0,27.71,South,171,9.0,10.0,75,0.00,,---,0.00,VWS V14.01,2013-06-26 16:17:00,
2013-06-26 11:22:00,76.0,67.9,27.71,SE,133,1.0,7.0,76,0.00,,---,0.00,VWS V14.01,2013-06-26 16:22:00,
2013-06-26 11:28:00,76.2,68.8,27.71,South,180,2.0,6.0,78,0.00,,---,0.00,VWS V14.01,2013-06-26 16:28:00,
2013-06-26 11:33:00,76.2,68.5,27.72,South,173,3.0,3.0,77,0.00,,---,0.00,VWS V14.01,2013-06-26 16:33:00,
2013-06-26 11:38:00,76.0,68.3,27.72,SSE,164,6.0,7.0,77,0.00,,---,0.00,VWS V14.01,2013-06-26 16:38:00,
2013-06-26 11:43:00,75.6,68.6,27.72,East,98,2.0,3.0,79,0.00,,---,0.00,VWS V14.01,2013-06-26 16:43:00,
2013-06-26 11:48:00,75.3,68.7,27.72,South,174,3.0,6.0,80,0.00,,---,0.00,VWS V14.01,2013-06-26 16:48:00,
2013-06-26 11:54:00,75.1,68.2,27.72,South,180,0.0,3.0,79,0.00,,---,0.00,VWS V14.01,2013-06-26 16:54:00,
2013-06-26 11:59:00,75.0,68.4,27.72,SSE,158,3.0,3.0,80,0.00,,---,0.00,VWS V14.01,2013-06-26 16:59:00,
2013-06-26 12:04:00,74.8,68.6,27.72,SSE,157,3.0,6.0,81,0.00,,---,0.00,VWS V14.01,2013-06-26 17:04:00,
2013-06-26 12:09:00,74.8,68.2,27.72,SSE,151,1.0,4.0,80,0.00,,---,0.00,VWS V14.01,2013-06-26 17:09:00,
2013-06-26 12:14:00,74.7,68.5,27.72,SSW,195,2.0,3.0,81,0.00,,---,0.00,VWS V14.01,2013-06-26 17:14:00,
2013-06-26 12:20:00,74.4,68.6,27.74,SSW,192,2.0,3.0,82,0.00,,---,0.00,VWS V14.01,2013-06-26 17:20:00,
2013-06-26 12:25:00,74.0,67.8,27.74,WSW,249,3.0,3.0,81,0.00,,---,0.00,VWS V14.01,2013-06-26 17:25:00,
2013-06-26 12:30:00,72.9,66.0,27.74,West,259,6.0,16.0,79,0.00,,---,0.00,VWS V14.01,2013-06-26 17:30:00,
2013-06-26 12:58:00,61.3,59.6,27.77,West,261,9.0,10.0,94,0.57,,---,0.57,VWS V14.01,2013-06-26 17:58:00,
2013-06-26 13:03:00,61.3,59.9,27.77,ESE,117,2.0,7.0,95,0.61,,---,0.61,VWS V14.01,2013-06-26 18:03:00,
2013-06-26 13:09:00,61.2,59.8,27.77,SW,225,7.0,7.0,95,0.65,,---,0.65,VWS V14.01,2013-06-26 18:09:00,
2013-06-26 13:14:00,61.2,59.8,27.77,SSW,202,1.0,5.0,95,0.67,,---,0.67,VWS V14.01,2013-06-26 18:14:00,
2013-06-26 13:19:00,61.2,59.8,27.76,SSW,213,0.0,3.0,95,0.70,,---,0.70,VWS V14.01,2013-06-26 18:19:00,
2013-06-26 13:24:00,61.3,60.2,27.76,WSW,246,0.0,0.0,96,0.71,,---,0.71,VWS V14.01,2013-06-26 18:24:00,
2013-06-26 13:29:00,61.3,60.2,27.76,SW,227,3.0,5.0,96,0.72,,---,0.72,VWS V14.01,2013-06-26 18:29:00,
2013-06-26 13:34:00,61.3,60.2,27.76,SSW,202,0.0,0.0,96,0.73,,---,0.73,VWS V14.01,2013-06-26 18:34:00,
2013-06-26 13:39:00,61.3,60.2,27.76,SSW,202,0.0,0.0,96,0.64,,---,0.73,VWS V14.01,2013-06-26 18:39:00,
2013-06-26 13:45:00,61.3,60.2,27.76,SSW,205,0.0,0.0,96,0.53,,---,0.74,VWS V14.01,2013-06-26 18:45:00,
2013-06-26 13:50:00,61.4,60.2,27.75,SSW,205,0.0,0.0,96,0.35,,---,0.76,VWS V14.01,2013-06-26 18:50:00,
2013-06-26 13:55:00,61.5,60.3,27.75,SSW,205,0.0,0.0,96,0.25,,---,0.77,VWS V14.01,2013-06-26 18:55:00,
2013-06-26 14:00:00,61.5,60.3,27.75,SSW,205,0.0,0.0,96,0.21,,---,0.79,VWS V14.01,2013-06-26 19:00:00,
2013-06-26 14:05:00,61.6,60.7,27.75,SSW,205,0.0,0.0,97,0.16,,---,0.79,VWS V14.01,2013-06-26 19:05:00,
2013-06-26 14:11:00,61.7,60.8,27.75,SSW,205,0.0,0.0,97,0.15,,---,0.80,VWS V14.01,2013-06-26 19:11:00,
2013-06-26 14:16:00,61.8,60.9,27.74,SSW,205,0.0,0.0,97,0.14,,---,0.81,VWS V14.01,2013-06-26 19:16:00,
2013-06-26 14:21:00,61.8,60.9,27.74,SSW,205,0.0,1.0,97,0.11,,---,0.81,VWS V14.01,2013-06-26 19:21:00,
2013-06-26 14:26:00,61.8,60.9,27.74,SSW,204,0.0,0.0,97,0.11,,---,0.82,VWS V14.01,2013-06-26 19:26:00,
2013-06-26 14:31:00,61.8,60.9,27.75,SSW,204,0.0,0.0,97,0.10,,---,0.82,VWS V14.01,2013-06-26 19:31:00,
2013-06-26 14:37:00,61.8,60.9,27.75,SSW,204,0.0,0.0,97,0.09,,---,0.82,VWS V14.01,2013-06-26 19:37:00,
2013-06-26 14:42:00,61.8,60.9,27.75,SSW,204,0.0,0.0,97,0.08,,---,0.82,VWS V14.01,2013-06-26 19:42:00,
2013-06-26 14:47:00,61.8,60.9,27.75,SSW,204,0.0,0.0,97,0.07,,---,0.82,VWS V14.01,2013-06-26 19:47:00,
2013-06-26 14:52:00,61.8,60.9,27.75,SSW,204,0.0,0.0,97,0.06,,---,0.82,VWS V14.01,2013-06-26 19:52:00,
2013-06-26 14:57:00,61.7,60.8,27.75,SSW,204,0.0,0.0,97,0.04,,---,0.82,VWS V14.01,2013-06-26 19:57:00,
2013-06-26 15:02:00,61.8,60.9,27.75,SSW,204,0.0,0.0,97,0.03,,---,0.82,VWS V14.01,2013-06-26 20:02:00,
2013-06-26 15:08:00,61.8,60.9,27.75,SSW,204,0.0,0.0,97,0.02,,---,0.82,VWS V14.01,2013-06-26 20:08:00,
2013-06-26 15:13:00,62.1,61.2,27.75,SSW,204,0.0,0.0,97,0.02,,---,0.82,VWS V14.01,2013-06-26 20:13:00,
2013-06-26 15:18:00,62.1,61.2,27.76,SSW,204,0.0,0.0,97,0.01,,---,0.82,VWS V14.01,2013-06-26 20:18:00,
2013-06-26 15:23:00,62.2,61.3,27.76,SSW,204,0.0,0.0,97,0.01,,---,0.82,VWS V14.01,2013-06-26 20:23:00,
2013-06-26 15:28:00,62.3,61.4,27.76,SSW,204,0.0,0.0,97,0.00,,---,0.82,VWS V14.01,2013-06-26 20:28:00,
2013-06-26 15:34:00,62.2,61.3,27.76,SSW,204,0.0,0.0,97,0.00,,---,0.82,VWS V14.01,2013-06-26 20:34:00,
2013-06-26 15:39:00,62.4,61.5,27.76,SSW,204,0.0,0.0,97,0.00,,---,0.82,VWS V14.01,2013-06-26 20:39:00,
2013-06-26 15:44:00,62.5,61.6,27.76,SSW,204,0.0,1.0,97,0.00,,---,0.82,VWS V14.01,2013-06-26 20:44:00,
2013-06-26 15:49:00,62.7,62.7,27.76,SSW,204,0.0,0.0,100,0.00,,---,0.82,VWS V14.01,2013-06-26 20:49:00,
2013-06-26 15:55:00,62.8,61.9,27.76,SSW,204,0.0,0.0,97,0.00,,---,0.82,VWS V14.01,2013-06-26 20:55:00,
2013-06-26 16:00:00,62.7,61.8,27.76,SSW,204,0.0,0.0,97,0.00,,---,0.82,VWS V14.01,2013-06-26 21:00:00,
2013-06-26 16:05:00,62.7,61.8,27.75,SSW,204,0.0,0.0,97,0.00,,---,0.82,VWS V14.01,2013-06-26 21:05:00,
2013-06-26 16:10:00,62.8,61.9,27.75,SSW,204,0.0,0.0,97,0.00,,---,0.82,VWS V14.01,2013-06-26 21:10:00,
2013-06-26 16:15:00,63.2,62.3,27.75,SSW,204,0.0,0.0,97,0.00,,---,0.82,VWS V14.01,2013-06-26 21:15:00,
2013-06-26 16:20:00,63.4,62.8,27.75,SSW,204,0.0,0.0,98,0.00,,---,0.82,VWS V14.01,2013-06-26 21:20:00,
2013-06-26 16:25:00,63.6,63.0,27.75,SSW,204,0.0,0.0,98,0.00,,---,0.82,VWS V14.01,2013-06-26 21:25:00,
2013-06-26 16:30:00,63.6,62.7,27.75,SSW,204,0.0,0.0,97,0.00,,---,0.82,VWS V14.01,2013-06-26 21:30:00,
2013-06-26 16:36:00,64.1,63.5,27.75,SSW,204,0.0,0.0,98,0.00,,---,0.82,VWS V14.01,2013-06-26 21:36:00,
2013-06-26 16:41:00,64.5,63.9,27.75,SSW,204,1.0,1.0,98,0.00,,---,0.82,VWS V14.01,2013-06-26 21:41:00,
2013-06-26 16:46:00,64.6,64.0,27.75,SSW,204,1.0,1.0,98,0.00,,---,0.82,VWS V14.01,2013-06-26 21:46:00,
2013-06-26 16:52:00,64.9,64.3,27.75,SSW,204,1.0,1.0,98,0.00,,---,0.82,VWS V14.01,2013-06-26 21:52:00,
2013-06-26 16:57:00,65.2,64.3,27.75,SSW,204,0.0,0.0,97,0.00,,---,0.82,VWS V14.01,2013-06-26 21:57:00,
2013-06-26 17:02:00,65.6,64.7,27.75,SSW,204,0.0,0.0,97,0.00,,---,0.82,VWS V14.01,2013-06-26 22:02:00,
2013-06-26 17:07:00,66.1,65.2,27.75,WSW,252,0.0,2.0,97,0.00,,---,0.82,VWS V14.01,2013-06-26 22:07:00,
2013-06-26 17:12:00,66.2,65.0,27.75,West,265,1.0,3.0,96,0.00,,---,0.82,VWS V14.01,2013-06-26 22:12:00,
2013-06-26 17:17:00,66.8,65.6,27.75,West,264,0.0,0.0,96,0.00,,---,0.82,VWS V14.01,2013-06-26 22:17:00,
2013-06-26 17:23:00,67.6,65.8,27.75,West,273,1.0,2.0,94,0.00,,---,0.82,VWS V14.01,2013-06-26 22:23:00,
2013-06-26 17:28:00,67.9,65.5,27.75,WSW,254,2.0,2.0,92,0.00,,---,0.82,VWS V14.01,2013-06-26 22:28:00,
2013-06-26 17:33:00,67.9,64.9,27.75,WSW,256,3.0,5.0,90,0.00,,---,0.82,VWS V14.01,2013-06-26 22:33:00,
2013-06-26 17:38:00,67.7,64.7,27.75,West,261,2.0,4.0,90,0.00,,---,0.82,VWS V14.01,2013-06-26 22:38:00,
2013-06-26 17:43:00,67.7,64.7,27.75,West,269,0.0,5.0,90,0.00,,---,0.82,VWS V14.01,2013-06-26 22:43:00,
2013-06-26 17:48:00,67.9,64.2,27.75,NW,318,1.0,9.0,88,0.00,,---,0.82,VWS V14.01,2013-06-26 22:48:00,
2013-06-26 17:54:00,67.8,64.4,27.75,NW,311,0.0,0.0,89,0.00,,---,0.82,VWS V14.01,2013-06-26 22:54:00,
2013-06-26 17:59:00,67.9,63.9,27.75,WNW,298,1.0,1.0,87,0.00,,---,0.82,VWS V14.01,2013-06-26 22:59:00,
2013-06-26 18:04:00,68.3,64.9,27.74,WSW,243,5.0,5.0,89,0.00,,---,0.82,VWS V14.01,2013-06-26 23:04:00,
2013-06-26 18:09:00,68.5,64.5,27.74,SW,216,0.0,4.0,87,0.00,,---,0.82,VWS V14.01,2013-06-26 23:09:00,
2013-06-26 18:14:00,69.0,65.0,27.74,SW,216,0.0,0.0,87,0.00,,---,0.82,VWS V14.01,2013-06-26 23:14:00,
2013-06-26 18:20:00,69.6,65.6,27.74,SW,217,1.0,3.0,87,0.00,,---,0.82,VWS V14.01,2013-06-26 23:20:00,
2013-06-26 18:25:00,69.7,65.3,27.74,WSW,244,5.0,5.0,86,0.00,,---,0.82,VWS V14.01,2013-06-26 23:25:00,
2013-06-26 18:30:00,69.6,64.6,27.74,West,271,6.0,6.0,84,0.00,,---,0.82,VWS V14.01,2013-06-26 23:30:00,
2013-06-26 18:35:00,69.8,64.4,27.74,West,277,4.0,7.0,83,0.00,,---,0.82,VWS V14.01,2013-06-26 23:35:00,
2013-06-26 18:40:00,69.9,64.2,27.74,West,271,2.0,5.0,82,0.00,,---,0.82,VWS V14.01,2013-06-26 23:40:00,
2013-06-26 18:45:00,69.9,64.2,27.74,West,261,0.0,3.0,82,0.00,,---,0.82,VWS V14.01,2013-06-26 23:45:00,
2013-06-26 18:50:00,69.8,64.4,27.74,West,262,0.0,0.0,83,0.00,,---,0.82,VWS V14.01,2013-06-26 23:50:00,
2013-06-26 18:55:00,70.0,64.3,27.74,West,262,0.0,0.0,82,0.00,,---,0.82,VWS V14.01,2013-06-26 23:55:00,
2013-06-26 19:00:00,70.6,64.8,27.74,West,262,0.0,0.0,82,0.00,,---,0.82,VWS V14.01,2013-06-27 00:00:00,
2013-06-26 19:06:00,70.8,65.4,27.74,WNW,291,1.0,1.0,83,0.00,,---,0.82,VWS V14.01,2013-06-27 00:06:00,
2013-06-26 19:11:00,71.1,65.3,27.74,WNW,290,0.0,1.0,82,0.00,,---,0.82,VWS V14.01,2013-06-27 00:11:00,
2013-06-26 19:16:00,71.3,65.5,27.73,WNW,291,0.0,1.0,82,0.00,,---,0.82,VWS V14.01,2013-06-27 00:16:00,
2013-06-26 19:21:00,71.5,65.7,27.73,WNW,290,0.0,1.0,82,0.00,,---,0.82,VWS V14.01,2013-06-27 00:21:00,
2013-06-26 19:26:00,71.3,64.8,27.73,WNW,290,2.0,2.0,80,0.00,,---,0.82,VWS V14.01,2013-06-27 00:26:00,
2013-06-26 19:31:00,71.3,65.2,27.74,WNW,290,0.0,1.0,81,0.00,,---,0.82,VWS V14.01,2013-06-27 00:31:00,
2013-06-26 19:36:00,71.1,65.3,27.74,WNW,290,0.0,0.0,82,0.00,,---,0.82,VWS V14.01,2013-06-27 00:36:00,
2013-06-26 19:41:00,71.3,65.2,27.74,WNW,290,0.0,0.0,81,0.00,,---,0.82,VWS V14.01,2013-06-27 00:41:00,
2013-06-26 19:46:00,71.3,65.9,27.74,WNW,291,0.0,0.0,83,0.00,,---,0.82,VWS V14.01,2013-06-27 00:46:00,
2013-06-26 19:52:00,71.3,65.2,27.74,WNW,290,0.0,0.0,81,0.00,,---,0.82,VWS V14.01,2013-06-27 00:52:00,
2013-06-26 19:57:00,71.3,65.2,27.74,WNW,290,0.0,0.0,81,0.00,,---,0.82,VWS V14.01,2013-06-27 00:57:00,
2013-06-26 20:02:00,71.4,65.6,27.74,WNW,290,0.0,0.0,82,0.00,,---,0.82,VWS V14.01,2013-06-27 01:02:00,
2013-06-26 20:07:00,71.5,65.4,27.74,WNW,290,0.0,0.0,81,0.00,,---,0.82,VWS V14.01,2013-06-27 01:07:00,
2013-06-26 20:12:00,71.4,65.6,27.74,WNW,291,0.0,0.0,82,0.00,,---,0.82,VWS V14.01,2013-06-27 01:12:00,
2013-06-26 20:18:00,71.4,65.3,27.74,WNW,290,0.0,0.0,81,0.00,,---,0.82,VWS V14.01,2013-06-27 01:18:00,
2013-06-26 20:23:00,71.3,65.2,27.74,WNW,290,0.0,0.0,81,0.00,,---,0.82,VWS V14.01,2013-06-27 01:23:00,
2013-06-26 20:28:00,70.8,65.0,27.74,WNW,290,0.0,0.0,82,0.00,,---,0.82,VWS V14.01,2013-06-27 01:28:00,
2013-06-26 20:33:00,70.0,64.6,27.74,WNW,290,0.0,0.0,83,0.00,,---,0.82,VWS V14.01,2013-06-27 01:33:00,
2013-06-26 20:38:00,69.3,64.3,27.74,WNW,290,0.0,0.0,84,0.00,,---,0.82,VWS V14.01,2013-06-27 01:38:00,
2013-06-26 20:43:00,68.8,64.4,27.74,WNW,290,0.0,0.0,86,0.00,,---,0.82,VWS V14.01,2013-06-27 01:43:00,
2013-06-26 20:48:00,68.1,64.4,27.75,WNW,290,0.0,0.0,88,0.00,,---,0.82,VWS V14.01,2013-06-27 01:48:00,
2013-06-26 20:53:00,67.5,64.2,27.75,WNW,290,0.0,0.0,89,0.00,,---,0.82,VWS V14.01,2013-06-27 01:53:00,
2013-06-26 20:58:00,66.9,63.9,27.75,WNW,290,0.0,0.0,90,0.00,,---,0.82,VWS V14.01,2013-06-27 01:58:00,
2013-06-26 21:04:00,66.5,63.8,27.75,WNW,290,0.0,0.0,91,0.00,,---,0.82,VWS V14.01,2013-06-27 02:04:00,
2013-06-26 21:09:00,66.0,63.3,27.75,WNW,290,0.0,0.0,91,0.00,,---,0.82,VWS V14.01,2013-06-27 02:09:00,
2013-06-26 21:14:00,65.4,62.7,27.75,WNW,290,0.0,0.0,91,0.00,,---,0.82,VWS V14.01,2013-06-27 02:14:00,
2013-06-26 21:19:00,65.1,63.0,27.76,WNW,290,0.0,0.0,93,0.00,,---,0.82,VWS V14.01,2013-06-27 02:19:00,
2013-06-26 21:24:00,64.8,62.7,27.76,WNW,290,0.0,0.0,93,0.00,,---,0.82,VWS V14.01,2013-06-27 02:24:00,
2013-06-26 21:30:00,64.5,62.7,27.76,WNW,290,0.0,0.0,94,0.00,,---,0.82,VWS V14.01,2013-06-27 02:30:00,
2013-06-26 21:35:00,64.3,62.5,27.76,WNW,290,0.0,0.0,94,0.00,,---,0.82,VWS V14.01,2013-06-27 02:35:00,
2013-06-26 21:40:00,63.9,62.1,27.76,WNW,290,0.0,0.0,94,0.00,,---,0.82,VWS V14.01,2013-06-27 02:40:00,
2013-06-26 21:45:00,63.6,61.8,27.76,WNW,290,0.0,0.0,94,0.00,,---,0.82,VWS V14.01,2013-06-27 02:45:00,
2013-06-26 21:50:00,63.2,61.5,27.76,WNW,290,0.0,0.0,94,0.00,,---,0.82,VWS V14.01,2013-06-27 02:50:00,
2013-06-26 21:55:00,62.9,61.2,27.76,WNW,290,0.0,0.0,94,0.00,,---,0.82,VWS V14.01,2013-06-27 02:55:00,
2013-06-26 22:00:00,62.8,61.3,27.76,WNW,290,0.0,0.0,95,0.00,,---,0.82,VWS V14.01,2013-06-27 03:00:00,
2013-06-26 22:05:00,62.6,61.2,27.77,WNW,290,0.0,0.0,95,0.00,,---,0.82,VWS V14.01,2013-06-27 03:05:00,
2013-06-26 22:11:00,62.4,61.0,27.77,WNW,290,0.0,0.0,95,0.00,,---,0.82,VWS V14.01,2013-06-27 03:11:00,
2013-06-26 22:16:00,62.4,61.2,27.77,WNW,290,0.0,0.0,96,0.00,,---,0.82,VWS V14.01,2013-06-27 03:16:00,
2013-06-26 22:21:00,62.4,61.2,27.77,WNW,290,0.0,0.0,96,0.00,,---,0.82,VWS V14.01,2013-06-27 03:21:00,
2013-06-26 22:26:00,62.3,61.2,27.77,WNW,290,0.0,0.0,96,0.00,,---,0.82,VWS V14.01,2013-06-27 03:26:00,
2013-06-26 22:31:00,62.1,61.0,27.77,WNW,290,0.0,0.0,96,0.00,,---,0.82,VWS V14.01,2013-06-27 03:31:00,
2013-06-26 22:37:00,61.9,60.8,27.77,WNW,290,0.0,0.0,96,0.00,,---,0.82,VWS V14.01,2013-06-27 03:37:00,
2013-06-26 22:42:00,61.8,60.7,27.77,WNW,290,0.0,0.0,96,0.00,,---,0.82,VWS V14.01,2013-06-27 03:42:00,
2013-06-26 22:47:00,61.6,60.5,27.77,WNW,290,0.0,0.0,96,0.00,,---,0.82,VWS V14.01,2013-06-27 03:47:00,
2013-06-26 22:52:00,61.6,60.5,27.77,WNW,290,0.0,0.0,96,0.00,,---,0.82,VWS V14.01,2013-06-27 03:52:00,
2013-06-26 22:57:00,61.6,60.5,27.77,WNW,290,0.0,0.0,96,0.00,,---,0.82,VWS V14.01,2013-06-27 03:57:00,
2013-06-26 23:01:00,61.6,60.5,27.76,WNW,290,0.0,0.0,96,0.00,,---,0.82,VWS V14.01,2013-06-27 04:01:00,
2013-06-26 23:02:00,61.7,60.5,27.76,WNW,290,0.0,0.0,96,0.00,,---,0.82,VWS V14.01,2013-06-27 04:02:00,
2013-06-26 23:08:00,61.9,61.0,27.76,WNW,290,0.0,0.0,97,0.00,,---,0.82,VWS V14.01,2013-06-27 04:08:00,
2013-06-26 23:13:00,61.8,60.9,27.76,WNW,290,0.0,0.0,97,0.00,,---,0.82,VWS V14.01,2013-06-27 04:13:00,
2013-06-26 23:18:00,61.8,60.9,27.77,WNW,290,0.0,0.0,97,0.00,,---,0.82,VWS V14.01,2013-06-27 04:18:00,
2013-06-26 23:23:00,61.9,61.0,27.77,WNW,290,0.0,0.0,97,0.00,,---,0.82,VWS V14.01,2013-06-27 04:23:00,
2013-06-26 23:28:00,62.1,61.2,27.77,WNW,290,0.0,0.0,97,0.00,,---,0.82,VWS V14.01,2013-06-27 04:28:00,
2013-06-26 23:34:00,62.3,61.4,27.77,WNW,290,0.0,0.0,97,0.00,,---,0.82,VWS V14.01,2013-06-27 04:34:00,
2013-06-26 23:39:00,62.5,61.6,27.77,WNW,290,2.0,2.0,97,0.00,,---,0.82,VWS V14.01,2013-06-27 04:39:00,
2013-06-26 23:44:00,62.5,61.6,27.77,WNW,288,3.0,4.0,97,0.00,,---,0.82,VWS V14.01,2013-06-27 04:44:00,
2013-06-26 23:49:00,62.5,61.6,27.77,WNW,284,0.0,0.0,97,0.00,,---,0.82,VWS V14.01,2013-06-27 04:49:00,
2013-06-26 23:54:00,62.5,61.6,27.77,West,275,1.0,1.0,97,0.00,,---,0.82,VWS V14.01,2013-06-27 04:54:00,